Delta, CO

6:15 PM MST on February 27, 2017 (GMT -0700)
Delta

Weather History for KAJZ - August, 2012

Change the Weather History Date:

Sunday, August 19, 2012

  Actual Average (KMTJ) Record (KMTJ)
Temperature  
Mean Temperature 76 °F -  
Max Temperature 97 °F 83 °F 93 °F (2001)
Min Temperature 55 °F 54 °F 48 °F (2015)
Cooling Degree Days 11    
Growing Degree Days 26 (Base 50)    
Moisture  
Dew Point 31 °F    
Average Humidity 22    
Maximum Humidity 47    
Minimum Humidity 8    
Precipitation  
Precipitation 0.00 in - - ()
Sea Level Pressure  
Sea Level Pressure 30.08 in    
Wind  
Wind Speed 4 mph ()    
Max Wind Speed 15 mph    
Max Gust Speed 18 mph    
Visibility 9.5 miles    
Events      
Averages and records for this station are not official NWS values.
T = Trace of Precipitation, MM = Missing Value Source: Averaged Metar Reports

Daily Weather History Graph

Daily Weather History Graph

Search for Another Location

Airport or City:

Trip Planner

Search our weather history database for the weather conditions in past years. The results will help you decide how hot, cold, wet, or windy it might be!

Date:

Astronomy

Aug. 19, 2012 Rise Set
Actual Time 6:30 AM MDT 8:00 PM MDT
Civil Twilight 6:02 AM MDT 8:28 PM MDT
Nautical Twilight 5:28 AM MDT 9:02 PM MDT
Astronomical Twilight 4:52 AM MDT 9:37 PM MDT
Moon 8:46 AM MDT (8/19) 8:53 PM MDT (8/19)
Length of Visible Light 14h 26m
Length of Day
13h 30m
Waxing Crescent, 5% of the Moon is Illuminated
Aug 19
Waxing Crescent
Aug 24
First Quarter
Aug 31
Full
Sep 8
Last Quarter
Sep 15
New

Hourly Weather History & Observations

Time (MDT) Temp. Dew Point Humidity Pressure Visibility Wind Dir Wind Speed Gust Speed Precip Events Conditions
12:15 AM 69.8 °F 33.3 °F 26% 30.07 in 10.0 mi North 6.9 mph - N/A   Clear
12:35 AM 71.4 °F 27.7 °F 20% 30.08 in 10.0 mi East 3.5 mph - N/A   Clear
12:55 AM 68.4 °F 31.8 °F 26% 30.08 in 10.0 mi ESE 4.6 mph - N/A   Clear
1:15 AM 68.0 °F 32.4 °F 27% 30.09 in 10.0 mi SE 4.6 mph - N/A   Clear
1:35 AM 66.4 °F 36.1 °F 33% 30.09 in 10.0 mi Calm Calm - N/A   Clear
1:55 AM 66.0 °F 36.5 °F 34% 30.09 in 10.0 mi ESE 3.5 mph - N/A   Clear
2:15 AM 63.7 °F 36.5 °F 36% 30.10 in 7.0 mi East 4.6 mph - N/A   Clear
2:35 AM 65.1 °F 35.8 °F 34% 30.11 in 10.0 mi Calm Calm - N/A   Clear
2:55 AM 61.9 °F 40.5 °F 45% 30.11 in 10.0 mi Calm Calm - N/A   Clear
3:15 AM 63.3 °F 37.8 °F 39% 30.11 in 10.0 mi Calm Calm - N/A   Clear
3:35 AM 63.1 °F 38.8 °F 41% 30.11 in 10.0 mi Calm Calm - N/A   Clear
3:55 AM 59.5 °F 37.9 °F 45% 30.11 in 10.0 mi NNE 6.9 mph - N/A   Clear
4:15 AM 58.8 °F 36.5 °F 43% 30.12 in 10.0 mi NNE 5.8 mph - N/A   Clear
4:35 AM 59.7 °F 34.5 °F 39% 30.12 in 10.0 mi Calm Calm - N/A   Clear
4:55 AM 58.8 °F 35.4 °F 42% 30.12 in 10.0 mi NNE 5.8 mph - N/A   Clear
5:15 AM 56.3 °F 36.3 °F 47% 30.13 in 10.0 mi Calm Calm - N/A   Clear
5:35 AM 56.8 °F 36.9 °F 47% 30.14 in 10.0 mi NNE 3.5 mph - N/A   Clear
5:55 AM 56.7 °F 35.2 °F 45% 30.14 in 10.0 mi NNE 5.8 mph - N/A   Clear
6:35 AM 56.8 °F 28.4 °F 34% 30.15 in 10.0 mi ENE 3.5 mph - N/A   Clear
6:55 AM 55.8 °F 28.4 °F 35% 30.16 in 10.0 mi ESE 3.5 mph - N/A   Clear
7:15 AM 56.1 °F 31.8 °F 40% 30.16 in 10.0 mi ENE 3.5 mph - N/A   Clear
7:55 AM 59.9 °F 32.9 °F 36% 30.17 in 10.0 mi Calm Calm - N/A   Clear
8:15 AM 61.9 °F 32.0 °F 33% 30.17 in 10.0 mi Calm Calm - N/A   Clear
8:35 AM 64.2 °F 32.5 °F 31% 30.18 in 10.0 mi Calm Calm - N/A   Clear
8:55 AM 66.4 °F 31.5 °F 27% 30.18 in 10.0 mi Calm Calm - N/A   Clear
9:15 AM 68.9 °F 32.2 °F 26% 30.17 in 10.0 mi East 4.6 mph - N/A   Clear
9:35 AM 70.3 °F 33.1 °F 25% 30.17 in 10.0 mi East 4.6 mph - N/A   Clear
9:55 AM 71.8 °F 34.0 °F 25% 30.17 in 10.0 mi NE 3.5 mph - N/A   Clear
10:15 AM 73.0 °F 33.6 °F 24% 30.17 in 7.0 mi Calm Calm - N/A   Clear
10:35 AM 75.4 °F 34.0 °F 22% 30.16 in 10.0 mi Calm Calm - N/A   Clear
10:55 AM 78.1 °F 34.7 °F 21% 30.15 in 10.0 mi ENE 4.6 mph - N/A   Clear
11:15 AM 80.2 °F 34.0 °F 19% 30.15 in 10.0 mi Calm Calm - N/A   Clear
11:35 AM 81.5 °F 35.6 °F 19% 30.14 in 10.0 mi SSE 4.6 mph - N/A   Clear
11:55 AM 82.8 °F 36.3 °F 19% 30.14 in 10.0 mi Calm Calm - N/A   Clear
12:15 PM 85.3 °F 35.8 °F 17% 30.13 in 10.0 mi Calm Calm - N/A   Clear
12:35 PM 86.0 °F 34.2 °F 16% 30.12 in 10.0 mi SSW 4.6 mph - N/A   Clear
12:55 PM 87.4 °F 30.4 °F 13% 30.11 in 7.0 mi Calm Calm - N/A   Clear
1:15 PM 89.2 °F 30.2 °F 12% 30.10 in 10.0 mi SSE 3.5 mph - N/A   Clear
1:35 PM 91.2 °F 29.1 °F 11% 30.09 in 10.0 mi South 4.6 mph - N/A   Clear
1:55 PM 91.9 °F 29.5 °F 11% 30.08 in 10.0 mi SSE 8.1 mph - N/A   Clear
2:15 PM 92.1 °F 27.7 °F 10% 30.07 in 10.0 mi SSE 4.6 mph - N/A   Clear
2:35 PM 93.7 °F 27.5 °F 9% 30.05 in 10.0 mi South 6.9 mph - N/A   Clear
2:55 PM 95.2 °F 28.6 °F 9% 30.04 in 10.0 mi SSW 4.6 mph - N/A   Clear
3:15 PM 96.1 °F 29.3 °F 9% 30.02 in 10.0 mi South 11.5 mph 17.3 mph N/A   Clear
3:35 PM 97.0 °F 28.6 °F 9% 30.02 in 10.0 mi SSW 10.4 mph - N/A   Clear
3:55 PM 97.3 °F 28.6 °F 9% 30.01 in 10.0 mi SSW 13.8 mph 17.3 mph N/A   Clear
4:15 PM 97.2 °F 27.9 °F 9% 30.01 in 10.0 mi WNW 15.0 mph 18.4 mph N/A   Clear
4:35 PM 96.6 °F 26.6 °F 8% 30.00 in 10.0 mi West 6.9 mph - N/A   Clear
4:55 PM 96.8 °F 24.6 °F 8% 29.99 in 5.0 mi West 5.8 mph - N/A   Clear
5:15 PM 95.9 °F 27.0 °F 9% 29.98 in 10.0 mi NW 4.6 mph - N/A   Clear
5:35 PM 96.4 °F 26.8 °F 8% 29.98 in 10.0 mi WNW 8.1 mph 16.1 mph N/A   Clear
5:55 PM 96.4 °F 26.6 °F 8% 29.98 in 10.0 mi West 5.8 mph - N/A   Clear
6:15 PM 95.5 °F 26.4 °F 8% 29.97 in 10.0 mi WNW 8.1 mph - N/A   Clear
6:35 PM 95.4 °F 26.2 °F 8% 29.97 in 7.0 mi West 9.2 mph - N/A   Clear
6:55 PM 94.5 °F 25.5 °F 8% 29.97 in 7.0 mi WNW 8.1 mph - N/A   Clear
7:35 PM 92.5 °F 25.0 °F 9% 29.97 in 10.0 mi WNW 8.1 mph - N/A   Clear
7:55 PM 90.7 °F 24.8 °F 9% 29.98 in 10.0 mi West 6.9 mph - N/A   Clear
8:15 PM 88.9 °F 24.6 °F 10% 29.98 in 7.0 mi West 4.6 mph - N/A   Clear
8:35 PM 86.5 °F 24.6 °F 10% 29.98 in 7.0 mi NW 5.8 mph - N/A   Clear
8:55 PM 80.8 °F 31.1 °F 16% 30.00 in 7.0 mi Calm Calm - N/A   Clear
9:15 PM 78.8 °F 28.9 °F 16% 30.00 in 7.0 mi East 3.5 mph - N/A   Clear
9:35 PM 77.0 °F 29.5 °F 17% 30.01 in 10.0 mi East 3.5 mph - N/A   Clear
9:55 PM 75.7 °F 24.6 °F 15% 30.02 in 10.0 mi ENE 4.6 mph - N/A   Clear
10:15 PM 74.1 °F 32.0 °F 21% 30.02 in 10.0 mi North 5.8 mph - N/A   Clear
10:55 PM 76.6 °F 27.9 °F 17% 30.02 in 10.0 mi ENE 8.1 mph - N/A   Clear
11:15 PM 70.9 °F 33.1 °F 25% 30.03 in 10.0 mi Calm Calm - N/A   Clear
11:35 PM 70.9 °F 33.4 °F 25% 30.03 in 10.0 mi NE 4.6 mph - N/A   Clear
11:55 PM 71.8 °F 31.6 °F 23% 30.03 in 10.0 mi ESE 3.5 mph - N/A   Clear